This is the latest recevied weather packets stored in our database for station/object KQ4LLM. If no packets are shown the sender has not sent any weather packets the latest 10 day(s).
| Time | Temp. | Humidity | Pressure | Rain* | Wind** | Luminosity | Snow |
|---|---|---|---|---|---|---|---|
| 1788390178 | 32.78° C | 52% | - | 0 mm | - | - | - |
| 1788389873 | 33.33° C | 52% | - | 0 mm | - | - | - |
| 1788389568 | 33.33° C | 50% | - | 0 mm | - | - | - |
| 1788389266 | 33.33° C | 49% | - | 0 mm | - | - | - |
| 1788388961 | 33.89° C | 50% | - | 0 mm | - | - | - |
| 1788388658 | 33.89° C | 50% | - | 0 mm | - | - | - |
| 1788388356 | 33.89° C | 48% | - | 0 mm | - | - | - |
| 1788388050 | 33.89° C | 48% | - | 0 mm | - | - | - |
| 1788387745 | 33.89° C | 49% | - | 0 mm | - | - | - |
| 1788387440 | 33.89° C | 49% | - | 0 mm | - | - | - |
| 1788387138 | 33.89° C | 48% | - | 0 mm | - | - | - |
| 1788386834 | 33.89° C | 48% | - | 0 mm | - | - | - |
| 1788386534 | 33.89° C | 48% | - | 0 mm | - | - | - |
| 1788386230 | 33.89° C | 48% | - | 0 mm | - | - | - |
| 1788385925 | 33.89° C | 48% | - | 0 mm | - | - | - |
| 1788385620 | 33.89° C | 49% | - | 0 mm | - | - | - |
| 1788385319 | 33.89° C | 51% | - | 0 mm | - | - | - |
| 1788385015 | 33.89° C | 51% | - | 0 mm | - | - | - |
| 1788384709 | 33.33° C | 51% | - | 0 mm | - | - | - |
| 1788384404 | 32.78° C | 52% | - | 0 mm | - | - | - |
| 1788384101 | 33.89° C | 50% | - | 0 mm | - | - | - |
| 1788383796 | 33.89° C | 49% | - | 0 mm | - | - | - |
| 1788383491 | 33.89° C | 51% | - | 0 mm | - | - | - |
| 1788383191 | 33.89° C | 53% | - | 0 mm | - | - | - |
| 1788382886 | 33.89° C | 50% | - | 0 mm | - | - | - |
* Rain latest hour (hover to see other rain measurements)
** Current wind speed in m/s (hover to see current wind gust speed)